Regional Weather Roundup
Issued by NWS

Home | Current Version | Previous Version | Graphics & Text | Print | Product List | Glossary On
Versions: 1 2 3 4 5 6 7 8 9 10 11 12 13 14 15 16 17 18 19 20 21 22 23 24 25 26 27 28 29 30 31 32 33 34 35 36 37 38 39 40 41 42 43 44 45 46 47 48 49 50
000
ASUS44 KMEG 292200
RWRTN
TENNESSEE HOURLY STATE WEATHER ROUNDUP
NATIONAL WEATHER SERVICE MEMPHIS TN
500 PM CDT SUN MAY 29 2016

TNZ002-004-019-021-049-052-054-088>092-292300-
WEST TENNESSEE

CITY           SKY/WX    TMP DP  RH WIND       PRES   REMARKS
MEMPHIS INTL   CLOUDY    88  65  46 CALM      30.06F HX  90
NWS MEMPHIS      N/A     87 N/A N/A MISG        N/A
JACKSON        MOSUNNY   85  66  53 W7        30.05F
DYERSBURG      MOSUNNY   86  66  51 W6        30.04F
UNION CITY     SUNNY     86  68  54 NW10      30.03F
PARIS          MOSUNNY   82  64  54 W6        30.06S
$$

TNZ008-025-027-028-033-062-065-066-292300-
NORTH MIDDLE TENNESSEE

CITY           SKY/WX    TMP DP  RH WIND       PRES   REMARKS
NASHVILLE      MOSUNNY   90  63  40 NW8       30.04F HX  91
CLARKSVILLE    SUNNY     85  65  51 NW9       30.04F
COOKEVILLE     SUNNY     86  66  51 CALM      30.06S
CROSSVILLE     SUNNY     82  59  45 NW6       30.10F
$$

TNZ061-075-076-078-094-096-097-292300-
SOUTH MIDDLE TENNESSEE

CITY           SKY/WX    TMP DP  RH WIND       PRES   REMARKS
TULLAHOMA      MOSUNNY   84  63  48 W3        30.07F
SHELBYVILLE    MOSUNNY   91  64  40 NW8       30.05F HX  93
$$

TNZ017-018-042-046-047-292300-
NORTHEAST TENNESSEE

CITY           SKY/WX    TMP DP  RH WIND       PRES   REMARKS
TRI CITIES     CLOUDY    78  56  46 CALM      30.10F
$$

TNZ012-013-036-069-073-074-292300-
CENTRAL EAST TENNESSEE

CITY           SKY/WX    TMP DP  RH WIND       PRES   REMARKS
KNOXVILLE      MOSUNNY   81  64  56 E15       30.04F
OAK RIDGE      MOSUNNY   84  63  49 CALM      30.05F
GATLINBURG     MOSUNNY   79  63  57 N3        30.05F
$$

TNZ083-085-099-292300-
SOUTHEAST TENNESSEE

CITY           SKY/WX    TMP DP  RH WIND       PRES   REMARKS
CHATTANOOGA    PTSUNNY   88  60  38 NW8       30.03F
$$

SKY/WX REPORTED AS FAIR MEANS FEW OR NO CLOUDS BELOW
12 THOUSAND FEET.





USA.gov is the U.S. government's official web portal to all federal, state and local government web resources and services.